Weather History for Auburn-Lewiston, ME

Change the Weather History Date:

Tuesday, October 15, 2013

  Actual Average Record
Temperature  
Mean Temperature 56 °F -  
Max Temperature 64 °F 55 °F 68 °F (2000)
Min Temperature 48 °F 36 °F 23 °F (2002)
Degree Days  
Heating Degree Days 9    
Growing Degree Days 6 (Base 50)    
Moisture  
Dew Point 48 °F    
Average Humidity 78    
Maximum Humidity 100    
Minimum Humidity 52    
Precipitation  
Precipitation 0.00 in - - ()
Sea Level Pressure  
Sea Level Pressure 30.25 in    
Wind  
Wind Speed 2 mph (SE)    
Max Wind Speed 12 mph    
Max Gust Speed -    
Visibility 10 miles    
Events      
Averages and records for this station are not official NWS values.
T = Trace of Precipitation, MM = Missing Value Source: NWS Daily Summary

Daily Weather History Graph

Daily Weather History Graph

Search for Another Location

Airport:

Trip Planner

Search our weather history database for the weather conditions in past years. The results will help you decide how hot, cold, wet, or windy it might be!

Date:

Astronomy

Oct. 15, 2013 Rise Set
Actual Time 6:56 AM EDT 5:56 PM EDT
Civil Twilight 6:26 AM EDT 6:26 PM EDT
Nautical Twilight 5:53 AM EDT 6:59 PM EDT
Astronomical Twilight 5:19 AM EDT 7:32 PM EDT
Moon 4:05 PM EDT (10/15) 3:08 AM EDT (10/15)
Length of Visible Light 11h 59m
Length of Day
11h 00m
Waxing Gibbous, 87% of the Moon is Illuminated
Oct 15
Waxing Gibbous
Oct 18
Full
Oct 26
Last Quarter
Nov 3
New
Nov 10
First Quarter

Hourly Weather History & Observations

Time (EDT) Temp. Dew Point Humidity Pressure Visibility Wind Dir Wind Speed Gust Speed Precip Events Conditions
12:15 AM 51.8 °F 48.2 °F 88% 30.26 in 10.0 mi Calm Calm - N/A   Overcast
12:35 AM 51.8 °F 48.2 °F 88% 30.26 in 10.0 mi Calm Calm - N/A   Overcast
12:55 AM 51.8 °F 46.4 °F 82% 30.25 in 10.0 mi Calm Calm - N/A   Scattered Clouds
1:15 AM 51.8 °F 48.2 °F 88% 30.25 in 10.0 mi Calm Calm - N/A   Clear
1:35 AM 50.0 °F 46.4 °F 87% 30.25 in 10.0 mi Calm Calm - N/A   Partly Cloudy
1:55 AM 48.2 °F 46.4 °F 93% 30.25 in 10.0 mi Calm Calm - N/A   Mostly Cloudy
2:15 AM 48.2 °F 46.4 °F 93% 30.25 in 10.0 mi Calm Calm - N/A   Overcast
2:35 AM 48.2 °F 46.4 °F 93% 30.25 in 10.0 mi Calm Calm - N/A   Overcast
2:55 AM 50.0 °F 48.2 °F 94% 30.26 in 10.0 mi SE 3.5 mph - N/A   Overcast
3:15 AM 51.8 °F 48.2 °F 88% 30.26 in 10.0 mi Calm Calm - N/A   Overcast
3:35 AM 51.8 °F 48.2 °F 88% 30.26 in 10.0 mi Calm Calm - N/A   Overcast
3:55 AM 51.8 °F 48.2 °F 88% 30.26 in 10.0 mi Calm Calm - N/A   Overcast
4:15 AM 50.0 °F 48.2 °F 94% 30.26 in 10.0 mi Calm Calm - N/A   Overcast
4:35 AM 51.8 °F 48.2 °F 88% 30.26 in 10.0 mi North 3.5 mph - N/A   Overcast
4:55 AM 51.8 °F 48.2 °F 88% 30.26 in 10.0 mi NNW 3.5 mph - N/A   Overcast
5:15 AM 51.8 °F 48.2 °F 88% 30.27 in 10.0 mi Calm Calm - N/A   Overcast
5:35 AM 51.8 °F 48.2 °F 88% 30.27 in 10.0 mi North 3.5 mph - N/A   Overcast
5:55 AM 51.8 °F 48.2 °F 88% 30.27 in 10.0 mi Calm Calm - N/A   Overcast
6:15 AM 51.8 °F 48.2 °F 88% 30.27 in 10.0 mi Calm Calm - N/A   Overcast
6:35 AM 51.8 °F 48.2 °F 88% 30.27 in 10.0 mi Calm Calm - N/A   Partly Cloudy
6:55 AM 48.2 °F 46.4 °F 93% 30.27 in 1.5 mi Calm Calm - N/A   Mostly Cloudy
7:15 AM 48.2 °F 46.4 °F 93% 30.27 in 0.2 mi Calm Calm - N/A   Overcast
7:35 AM 48.2 °F 48.2 °F 100% 30.28 in 7.0 mi Calm Calm - N/A   Overcast
7:55 AM 48.2 °F 46.4 °F 93% 30.28 in 10.0 mi Calm Calm - N/A   Overcast
8:15 AM 51.8 °F 48.2 °F 88% 30.29 in 10.0 mi Calm Calm - N/A   Mostly Cloudy
8:35 AM 51.8 °F 50.0 °F 94% 30.29 in 10.0 mi North 3.5 mph - N/A   Mostly Cloudy
8:55 AM 53.6 °F 50.0 °F 88% 30.29 in 10.0 mi Calm Calm - N/A   Overcast
9:15 AM 55.4 °F 51.8 °F 88% 30.29 in 10.0 mi Calm Calm - N/A   Overcast
9:35 AM 55.4 °F 51.8 °F 88% 30.29 in 10.0 mi Calm Calm - N/A   Overcast
9:55 AM 59.0 °F 51.8 °F 77% 30.29 in 10.0 mi NNW 3.5 mph - N/A   Overcast
10:15 AM 60.8 °F 50.0 °F 68% 30.28 in 10.0 mi NE 4.6 mph - N/A   Mostly Cloudy
10:35 AM 60.8 °F 50.0 °F 68% 30.28 in 10.0 mi NNE 6.9 mph - N/A   Mostly Cloudy
10:55 AM 60.8 °F 48.2 °F 63% 30.28 in 10.0 mi NNE 5.8 mph - N/A   Mostly Cloudy
11:15 AM 60.8 °F 48.2 °F 63% 30.28 in 10.0 mi NNE 6.9 mph - N/A   Partly Cloudy
11:35 AM 62.6 °F 48.2 °F 59% 30.28 in 10.0 mi East 6.9 mph - N/A   Scattered Clouds
11:55 AM 64.4 °F 48.2 °F 56% 30.27 in 10.0 mi East 6.9 mph - N/A   Scattered Clouds
12:15 PM 64.4 °F 46.4 °F 52% 30.27 in 10.0 mi ESE 3.5 mph - N/A   Mostly Cloudy
12:35 PM 62.6 °F 48.2 °F 59% 30.26 in 10.0 mi ESE 3.5 mph - N/A   Overcast
12:55 PM 62.6 °F 48.2 °F 59% 30.25 in 10.0 mi Calm Calm - N/A   Overcast
1:15 PM 62.6 °F 48.2 °F 59% 30.25 in 10.0 mi East 4.6 mph - N/A   Scattered Clouds
1:35 PM 64.4 °F 48.2 °F 56% 30.25 in 10.0 mi ESE 3.5 mph - N/A   Mostly Cloudy
1:55 PM 64.4 °F 48.2 °F 56% 30.24 in 10.0 mi Calm Calm - N/A   Mostly Cloudy
2:15 PM 64.4 °F 48.2 °F 56% 30.24 in 10.0 mi Calm Calm - N/A   Mostly Cloudy
2:35 PM 64.4 °F 48.2 °F 56% 30.23 in 10.0 mi SE 3.5 mph - N/A   Overcast
2:55 PM 62.6 °F 48.2 °F 59% 30.23 in 10.0 mi SSE 4.6 mph - N/A   Overcast
3:15 PM 62.6 °F 50.0 °F 63% 30.22 in 10.0 mi South 11.5 mph - N/A   Overcast
3:35 PM 62.6 °F 50.0 °F 63% 30.22 in 10.0 mi South 10.4 mph - N/A   Overcast
3:55 PM 60.8 °F 48.2 °F 63% 30.22 in 10.0 mi South 9.2 mph - N/A   Overcast
4:15 PM 60.8 °F 48.2 °F 63% 30.22 in 10.0 mi South 9.2 mph - N/A   Overcast
4:35 PM 60.8 °F 48.2 °F 63% 30.22 in 10.0 mi South 8.1 mph - N/A   Overcast
4:55 PM 60.8 °F 48.2 °F 63% 30.21 in 10.0 mi SSE 6.9 mph - N/A   Overcast
5:15 PM 59.0 °F 48.2 °F 67% 30.21 in 10.0 mi SSE 8.1 mph - N/A   Overcast
5:35 PM 59.0 °F 48.2 °F 67% 30.21 in 10.0 mi SSE 6.9 mph - N/A   Overcast
5:55 PM 57.2 °F 48.2 °F 72% 30.22 in 10.0 mi South 6.9 mph - N/A   Overcast
6:15 PM 57.2 °F 48.2 °F 72% 30.22 in 10.0 mi SSE 9.2 mph - N/A   Overcast
6:35 PM 57.2 °F 48.2 °F 72% 30.23 in 10.0 mi SSE 4.6 mph - N/A   Overcast
6:55 PM 57.2 °F 48.2 °F 72% 30.24 in 10.0 mi SSE 4.6 mph - N/A   Overcast
7:15 PM 55.4 °F 48.2 °F 77% 30.23 in 10.0 mi SSE 3.5 mph - N/A   Overcast
7:35 PM 55.4 °F 48.2 °F 77% 30.23 in 10.0 mi SSE 4.6 mph - N/A   Overcast
7:55 PM 55.4 °F 48.2 °F 77% 30.23 in 10.0 mi SSE 3.5 mph - N/A   Overcast
8:15 PM 55.4 °F 48.2 °F 77% 30.23 in 10.0 mi SE 3.5 mph - N/A   Overcast
8:35 PM 55.4 °F 48.2 °F 77% 30.23 in 10.0 mi SSE 3.5 mph - N/A   Overcast
8:55 PM 53.6 °F 48.2 °F 82% 30.23 in 10.0 mi SSE 3.5 mph - N/A   Overcast
9:15 PM 53.6 °F 48.2 °F 82% 30.23 in 10.0 mi SSE 4.6 mph - N/A   Overcast
9:35 PM 53.6 °F 48.2 °F 82% 30.23 in 10.0 mi SSE 4.6 mph - N/A   Overcast
9:55 PM 53.6 °F 48.2 °F 82% 30.23 in 10.0 mi SSE 3.5 mph - N/A   Overcast
10:15 PM 53.6 °F 48.2 °F 82% 30.23 in 10.0 mi Calm Calm - N/A   Overcast
10:35 PM 53.6 °F 48.2 °F 82% 30.23 in 10.0 mi Calm Calm - N/A   Overcast
10:55 PM 53.6 °F 48.2 °F 82% 30.23 in 10.0 mi Calm Calm - N/A   Overcast
11:15 PM 53.6 °F 48.2 °F 82% 30.23 in 10.0 mi Calm Calm - N/A   Overcast
11:35 PM 53.6 °F 50.0 °F 88% 30.22 in 10.0 mi Calm Calm - N/A   Overcast
11:55 PM 53.6 °F 48.2 °F 82% 30.22 in 10.0 mi Calm Calm - N/A   Overcast